User: anonymous   Login
Location: La Pernelle
(49.6188°N, 1.2999°W)
Time: 20:55:18
(UTC+00:00)
Language:

Cosmos 1844 Rocket - Orbit

View from above orbital plane
View from above orbital plane
View from above satellite
View from above satellite

Ground track
Ground track

The orbit data is extracted from the following two-line orbital elements,

1 17974U 87041B   21271.32935998  .00000198  00000-0  12170-3 0  9991
2 17974  71.0081 214.2342 0013457 174.4094 299.6585 14.17276254778054
Epoch (UTC): 28 September 2021 07:54:16
Eccentricity: 0.0013457
inclination: 71.0081°
perigee height: 825 km
apogee height: 844 km
right ascension of ascending node: 214.2342°
argument of perigee: 174.4094°
revolutions per day: 14.17276254
mean anomaly at epoch: 299.6585°
orbit number at epoch: 77805

The dashed part of the orbit path shows where the satellite is in the earth's shadow,  

DLR